Total_Precipitation_Accumulation
2.21 1.79 1.21 0.73 0.59 0.54 0.49 0.60 0.69 0.68 0.67 0.72 0.75 0.64 0.63 0.56 0.56 0.61 0.57 0.62 0.77 0.98 1.20 1.34 1.51 1.74 1.93 1.96 2.02 2.20 2.37 2.51 2.68 2.86 2.88 2.79 2.78 2.72 2.64 2.47 2.30 2.18 2.07 2.05
1.89 1.31 0.60 0.44 0.47 0.48 0.50 0.59 0.63 0.63 0.61 0.73 0.76 0.69 0.63 0.63 0.60 0.62 0.58 0.57 0.72 0.91 1.08 1.24 1.40 1.58 1.74 1.86 1.94 2.14 2.33 2.42 2.46 2.63 2.85 2.78 2.83 2.89 2.93 2.84 2.62 2.45 2.35 2.28
1.44 0.85 0.48 0.52 0.60 0.55 0.45 0.48 0.54 0.60 0.64 0.78 0.87 0.87 0.67 0.64 0.61 0.56 0.54 0.58 0.72 0.90 1.00 1.11 1.26 1.39 1.53 1.73 1.95 2.07 2.20 2.35 2.43 2.70 3.19 3.19 3.09 3.01 3.00 3.00 2.89 2.69 2.56 2.50
1.27 0.73 0.56 0.58 0.54 0.51 0.49 0.35 0.46 0.57 0.81 0.98 0.95 1.19 0.77 0.70 0.67 0.58 0.55 0.58 0.74 0.86 0.91 0.98 1.19 1.29 1.37 1.52 1.80 2.09 2.22 2.39 2.62 2.90 3.18 3.27 3.04 2.88 2.80 2.77 2.86 2.87 2.64 2.56
1.24 0.84 0.69 0.64 0.49 0.47 0.48 0.37 0.48 0.59 0.77 0.95 0.76 0.96 0.84 0.66 0.70 0.70 0.66 0.66 0.79 0.88 0.93 0.98 1.16 1.27 1.29 1.38 1.57 1.84 2.13 2.27 2.57 2.82 3.01 3.26 3.06 2.78 2.81 2.79 2.72 2.80 2.73 2.55
0.86 0.72 0.77 0.65 0.45 0.45 0.50 0.53 0.65 0.76 0.98 1.11 0.66 0.75 0.84 0.75 0.74 0.74 0.75 0.80 0.90 0.94 0.96 1.01 1.14 1.16 1.17 1.23 1.36 1.53 1.77 1.92 2.09 2.35 2.62 2.90 3.00 2.88 2.79 2.67 2.62 2.63 2.60 2.54
1.02 0.83 0.70 0.62 0.64 0.59 0.64 0.97 1.31 1.43 1.33 0.92 0.51 0.59 0.84 0.74 0.68 0.70 0.77 0.83 0.88 0.90 0.88 0.97 1.06 1.01 1.00 1.07 1.19 1.31 1.44 1.58 1.71 1.92 2.18 2.42 2.67 2.77 2.77 2.70 2.57 2.50 2.42 2.35
1.06 1.14 0.70 0.59 0.65 0.67 0.60 0.80 1.08 1.09 0.77 0.54 0.38 0.58 0.78 0.73 0.70 0.67 0.74 0.74 0.75 0.79 0.82 0.95 1.11 1.05 0.99 1.00 1.04 1.07 1.18 1.37 1.50 1.58 1.80 1.97 2.13 2.28 2.30 2.41 2.42 2.37 2.27 2.21
0.75 0.79 0.49 0.40 0.35 0.44 0.58 0.57 0.55 0.91 0.65 0.48 0.47 0.57 0.71 0.67 0.65 0.66 0.70 0.67 0.66 0.71 0.81 0.92 0.99 0.96 0.91 0.91 0.92 0.94 1.04 1.18 1.25 1.29 1.43 1.50 1.63 1.80 1.88 1.93 1.98 2.02 2.06 2.08
0.55 0.64 0.45 0.33 0.33 0.36 0.39 0.41 0.56 1.05 0.99 0.64 0.45 0.49 0.73 0.70 0.69 0.67 0.64 0.62 0.63 0.69 0.76 0.79 0.78 0.74 0.74 0.81 0.87 0.89 0.95 1.01 1.01 1.05 1.15 1.19 1.24 1.37 1.52 1.59 1.58 1.59 1.67 1.76
0.38 0.55 0.48 0.39 0.45 0.38 0.33 0.45 0.60 0.81 0.77 0.71 0.51 0.56 0.60 0.63 0.66 0.66 0.60 0.58 0.60 0.63 0.61 0.61 0.59 0.59 0.63 0.68 0.71 0.73 0.78 0.86 0.89 0.87 0.92 0.99 1.04 1.12 1.26 1.38 1.42 1.46 1.48 1.50
0.32 0.51 0.47 0.32 0.23 0.18 0.23 0.36 0.57 0.93 0.75 0.59 0.55 0.55 0.48 0.49 0.51 0.52 0.51 0.50 0.50 0.51 0.50 0.51 0.52 0.52 0.54 0.56 0.58 0.64 0.70 0.77 0.79 0.76 0.78 0.83 0.90 0.95 1.03 1.14 1.20 1.25 1.31 1.35
0.51 0.68 0.65 0.48 0.35 0.26 0.29 0.31 0.41 0.72 0.98 0.70 0.63 0.58 0.44 0.40 0.39 0.39 0.43 0.45 0.43 0.42 0.40 0.41 0.42 0.43 0.45 0.50 0.53 0.57 0.60 0.65 0.69 0.70 0.75 0.78 0.79 0.82 0.86 0.90 0.96 0.97 1.04 1.14
0.70 0.73 0.58 0.50 0.38 0.41 0.42 0.27 0.33 0.88 1.22 0.61 0.35 0.40 0.37 0.35 0.36 0.38 0.41 0.41 0.39 0.38 0.35 0.33 0.34 0.32 0.34 0.42 0.47 0.48 0.48 0.54 0.63 0.67 0.70 0.75 0.73 0.75 0.77 0.77 0.80 0.79 0.81 0.84
0.58 0.61 0.31 0.22 0.22 0.36 0.40 0.30 0.32 0.57 0.56 0.57 0.33 0.28 0.33 0.34 0.37 0.39 0.40 0.36 0.33 0.33 0.32 0.28 0.31 0.29 0.31 0.35 0.39 0.41 0.44 0.50 0.59 0.66 0.65 0.68 0.70 0.70 0.71 0.70 0.69 0.66 0.66 0.67
0.52 0.56 0.33 0.24 0.16 0.24 0.32 0.23 0.21 0.25 0.28 0.33 0.27 0.31 0.29 0.31 0.33 0.36 0.36 0.34 0.34 0.36 0.35 0.31 0.29 0.28 0.29 0.33 0.42 0.47 0.53 0.58 0.59 0.63 0.62 0.62 0.65 0.67 0.68 0.66 0.61 0.61 0.63 0.66
0.52 0.58 0.65 0.38 0.15 0.32 0.40 0.28 0.23 0.23 0.26 0.33 0.41 0.39 0.31 0.35 0.41 0.48 0.42 0.33 0.33 0.36 0.38 0.36 0.33 0.32 0.34 0.42 0.56 0.68 0.75 0.73 0.70 0.69 0.65 0.61 0.63 0.66 0.67 0.68 0.69 0.69 0.68 0.71
0.50 0.63 0.94 0.65 0.38 0.58 0.40 0.23 0.19 0.21 0.29 0.35 0.35 0.32 0.32 0.36 0.41 0.42 0.36 0.31 0.31 0.33 0.37 0.39 0.39 0.41 0.44 0.51 0.61 0.70 0.78 0.84 0.84 0.85 0.82 0.75 0.77 0.81 0.85 0.86 0.87 0.86 0.85 0.87
0.31 0.68 1.14 0.97 0.66 0.36 0.23 0.17 0.25 0.31 0.33 0.33 0.31 0.26 0.24 0.24 0.28 0.30 0.27 0.27 0.30 0.34 0.38 0.39 0.40 0.45 0.52 0.57 0.61 0.70 0.81 0.84 0.90 1.03 1.11 1.07 1.04 1.08 1.14 1.17 1.16 1.13 1.12 1.11
0.32 0.66 1.28 1.17 0.93 0.44 0.25 0.14 0.20 0.31 0.46 0.27 0.26 0.27 0.24 0.25 0.36 0.33 0.28 0.29 0.29 0.31 0.33 0.35 0.38 0.40 0.51 0.62 0.73 0.84 0.95 0.98 1.04 1.14 1.24 1.21 1.18 1.18 1.20 1.21 1.17 1.11 1.07 1.06
0.52 0.94 1.24 1.00 0.92 0.43 0.25 0.13 0.19 0.52 0.57 0.28 0.26 0.29 0.32 0.39 0.45 0.35 0.30 0.33 0.37 0.38 0.38 0.39 0.44 0.52 0.66 0.79 0.94 1.12 1.17 1.15 1.11 1.11 1.10 1.06 1.00 0.94 0.93 0.91 0.87 0.82 0.79 0.78
0.43 0.67 0.76 0.83 1.05 0.60 0.24 0.21 0.42 0.54 0.32 0.24 0.22 0.26 0.32 0.32 0.27 0.26 0.26 0.29 0.37 0.42 0.42 0.45 0.54 0.64 0.74 0.81 0.91 0.99 0.99 0.93 0.88 0.82 0.78 0.73 0.71 0.67 0.66 0.69 0.66 0.62 0.59 0.59
0.41 0.55 0.64 0.69 0.67 0.42 0.30 0.36 0.39 0.34 0.30 0.24 0.26 0.26 0.27 0.27 0.23 0.24 0.25 0.25 0.30 0.35 0.37 0.41 0.44 0.47 0.51 0.54 0.60 0.64 0.64 0.59 0.58 0.54 0.51 0.50 0.50 0.51 0.51 0.54 0.56 0.54 0.52 0.53
0.40 0.39 0.51 0.54 0.43 0.35 0.32 0.29 0.27 0.27 0.30 0.27 0.27 0.26 0.25 0.28 0.23 0.23 0.25 0.25 0.28 0.30 0.33 0.38 0.38 0.37 0.40 0.41 0.42 0.45 0.47 0.48 0.47 0.47 0.46 0.44 0.45 0.47 0.50 0.54 0.57 0.59 0.59 0.62
0.39 0.41 0.50 0.51 0.38 0.35 0.32 0.30 0.30 0.27 0.23 0.20 0.19 0.19 0.22 0.26 0.26 0.26 0.30 0.31 0.31 0.33 0.37 0.39 0.41 0.40 0.40 0.38 0.39 0.41 0.43 0.44 0.45 0.46 0.47 0.48 0.47 0.47 0.51 0.55 0.60 0.67 0.68 0.75
0.35 0.47 0.64 0.57 0.37 0.45 0.39 0.32 0.29 0.28 0.23 0.21 0.21 0.21 0.21 0.25 0.29 0.28 0.29 0.31 0.34 0.37 0.39 0.39 0.39 0.39 0.39 0.38 0.38 0.40 0.43 0.45 0.47 0.49 0.49 0.52 0.54 0.53 0.53 0.55 0.61 0.69 0.73 0.76